User: anonymous   Login
Location: Caltech
(34.1382°N, 118.1253°W)
Time: 08:48:34
(UTC-07:00)
Language:

Cosmos 1125 Rocket - Orbit

View from above orbital plane
View from above orbital plane
View from above satellite
View from above satellite

Ground track
Ground track

The orbit data is extracted from the following two-line orbital elements,

1 11511U 79078B   17176.24093225 +.00000039 +00000-0 +22265-4 0  9992
2 11511 074.0374 300.4963 0015617 186.1005 173.9960 14.36773947979519
Epoch (UTC): 25 June 2017 05:46:56
Eccentricity: 0.0015617
inclination: 74.0374°
perigee height: 758 km
apogee height: 780 km
right ascension of ascending node: 300.4963°
argument of perigee: 186.1005°
revolutions per day: 14.36773947
mean anomaly at epoch: 173.9960°
orbit number at epoch: 97951

The dashed part of the orbit path shows where the satellite is in the earth's shadow,  

DLR